Tracking 20475 objects as of 27-Feb-2020
HD Live streaming from Space Station
objects crossing your sky now

COSMOS 2340

Track COSMOS 2340 now!
COSMOS 2340 is classified as:


NORAD ID: 24761
Int'l Code: 1997-015A
Perigee: 3,208.0 km
Apogee: 37,199.3 km
Inclination: 66.9 °
Period: 718.6 minutes
Semi major axis: 26574 km
RCS: 6.3095 m2 (large)
Launch date: April 9, 1997
Source: Commonwealth of Independent States (former USSR) (CIS)
Launch site: PLESETSK MISSILE AND SPACE COMPLEX (PKMTR)
aabbcc
Your satellite tracking list
Your tracking list is empty




NASA's NSSDC Master Catalog

Two Line Element Set (TLE):
1 24761U 97015A   20057.68326201  .00000589  00000-0  00000+0 0  9995
2 24761  66.9291 349.5616 6395430 180.8717 177.1353  2.00401620167647
Source of the keplerian elements: AFSPC